Regional Weather Roundup
Issued by NWS

Home | Current Version | Previous Version | Graphics & Text | Print | Product List | Glossary On
Versions: 1 2 3 4 5 6 7 8 9 10 11 12 13 14 15 16 17 18 19 20 21 22 23 24 25 26 27 28 29 30 31 32 33 34 35 36 37 38 39 40 41 42 43 44 45 46 47 48 49 50
000
ASUS43 KBIS 280302
RWRND

NORTH DAKOTA REGIONAL WEATHER ROUNDUP
NATIONAL WEATHER SERVICE BISMARCK ND
1000 PM CDT MON JUL 27 2015

NOTE: "FAIR" INDICATES FEW OR NO CLOUDS BELOW 12,000 FEET WITH NO
SIGNIFICANT WEATHER AND/OR OBSTRUCTIONS TO VISIBILITY.


NDZ001>003-009>011-017-280400-
NORTHWEST NORTH DAKOTA

CITY           SKY/WX    TMP DP  RH WIND       PRES   REMARKS
WILLISTON      LGT RAIN  67  63  87 NW9       29.57R
MINOT          CLOUDY    81  69  67 SE14      29.59F
MINOT AFB      CLOUDY    79  73  81 SE15      29.57F
$$

NDZ018>021-031>035-040>046-280400-
SOUTHWEST NORTH DAKOTA

CITY           SKY/WX    TMP DP  RH WIND       PRES   REMARKS
BISMARCK       CLOUDY    83  71  67 S17       29.69R
DICKINSON      CLOUDY    75  54  47 S25G38    29.61R
GARRISON         N/A     79  71  76 SE12      29.60F
HETTINGER ARPT CLOUDY    68  58  70 SE20G28   29.69R
$$

NDZ004>008-012>016-024-026-027-054-280400-
NORTHEAST NORTH DAKOTA

CITY           SKY/WX    TMP DP  RH WIND       PRES   REMARKS
GRAND FORKS    PTCLDY    79  72  79 SE10      29.74R
DEVILS LAKE    PTCLDY    79  68  69 SE15      29.70R
$$

NDZ022-023-025-028>030-036>039-047>053-280400-
SOUTHEAST NORTH DAKOTA

CITY           SKY/WX    TMP DP  RH WIND       PRES   REMARKS
FARGO          CLEAR     81  71  71 SE13G18   29.76R
JAMESTOWN      PTCLDY    79  74  84 SE18G25   29.72R
$$



USA.gov is the U.S. government's official web portal to all federal, state and local government web resources and services.